Regional Weather Roundup
Issued by NWS Columbia, SC

Home | Current Version | Previous Version | Text Only | Print | Product List | Glossary On
Versions: 1 2 3 4 5 6 7 8 9 10 11 12 13 14 15 16 17 18 19 20 21 22 23 24 25 26 27 28 29 30 31 32 33 34 35 36 37 38 39 40 41 42 43 44 45 46 47 48 49 50
000
ASUS42 KCAE 040310
RWRCAE
REGIONAL WEATHER ROUNDUP
NATIONAL WEATHER SERVICE COLUMBIA SC
1100 PM EDT FRI JUL 03 2015

NOTE: "FAIR" INDICATES FEW OR NO CLOUDS BELOW 12,000 FEET WITH NO
SIGNIFICANT WEATHER AND/OR OBSTRUCTIONS TO VISIBILITY.

NOT ALL STATIONS ARE QUALITY CONTROLLED BY THE NATIONAL
WEATHER SERVICE. USE DATA WITH CAUTION...ESPECIALLY
DEWPOINT OBSERVATIONS.

SCZ001>056-GAZ040-063>065-077-040400-
...UPSTATE SOUTH CAROLINA...

CITY           SKY/WX    TMP DP  RH WIND       PRES   REMARKS
ANDERSON       PTCLDY    74  67  78 SW9       30.02R
SPARTANBURG      N/A     75  68  78 SW9       29.98R
CLEMSON        PTCLDY    74  66  76 SW5       30.02R
GREENVILLE     PTCLDY    74  65  73 SW14G20   30.01R
GREENWOOD      PTCLDY    75  67  76 SW12      30.03R
GREER          MOCLDY    74  66  76 SW9       29.99R
ROCK HILL      MOCLDY    76  68  76 SW12      29.97R
CHESTER        PTCLDY    77  68  73 SW6       29.99R
LAURENS        PTCLDY    73  72  94 SW9       30.01R


...CENTRAL SOUTH CAROLINA...

CITY           SKY/WX    TMP DP  RH WIND       PRES   REMARKS
COLUMBIA APT   MOCLDY    79  69  71 SW8       30.00R
COLUMBIA OWENS MOCLDY    80  69  69 W7        30.01R
DARLINGTON     CLEAR     77  68  73 SW9       29.97R
FLORENCE       CLEAR     77  71  82 SW9       29.96R
MCENTIRE ANGB  MOCLDY    80  69  70 SW8       30.00R
ORANGEBURG     PTCLDY    74  69  85 S3        30.02R
SUMTER SHAW    MOCLDY    79  69  71 SW16      29.97R
NEWBERRY       MOCLDY    73  68  83 SW13      30.04R
BARNWELL       FAIR      73  72  94 CALM      30.02R
MANNING        FAIR      75  70  83 SW6       30.01R
CAMDEN         FAIR      81  68  65 SW15      29.98R
LANCASTER      CLEAR     75  72  88 SW12G18   29.97R
WINNSBORO      MOCLDY    77  70  78 SW8G16    30.00R


...EASTERN AND COASTAL SOUTH CAROLINA...

CITY           SKY/WX    TMP DP  RH WIND       PRES   REMARKS
MYRTLE BEACH   PTCLDY    75  68  78 SW8       30.01R
N MYRTLE BCH   MOCLDY    76  69  79 SW13G20   29.97R
CONWAY         FAIR      72  72 100 SW6       29.99R
MARION         FAIR      73  70  88 SW9       29.96S
HARTSVILLE     FAIR      77  68  73 SW6       29.96R
FLORENCE       CLEAR     77  71  82 SW9       29.96R
DARLINGTON     CLEAR     77  68  73 SW9       29.97R
CHARLESTON APT PTCLDY    77  74  90 S7        30.02R
MOUNT PLEASANT FAIR      79  75  89 S7        30.02R
WALTERBORO     PTCLDY    73  72  94 CALM      30.03R
BEAUFORT       CLEAR     81  76  84 S5        30.03R


...EASTERN GEORGIA...

CITY           SKY/WX    TMP DP  RH WIND       PRES   REMARKS
AUGUSTA BUSH F PTCLDY    75  73  93 CALM      30.01R
AUGUSTA DANIEL PTCLDY    78  72  81 CALM      30.04R
THOMSON        PTCLDY    75  75  99 CALM      30.07R
WASHINGTON     FAIR      77  77 100 CALM      30.03R
CLAXTON        FAIR      79  72  78 CALM      30.04R
SYLVANIA       CLEAR     79  75  88 CALM      30.04R
SAVANNAH       CLEAR     81  72  74 S10       30.04R


...SOUTHERN NORTH CAROLINA...

CITY           SKY/WX    TMP DP  RH WIND       PRES   REMARKS
CHARLOTTE      MOCLDY    76  65  68 SW9G18    29.96R
MONROE         MOCLDY    76  69  79 SW12      29.96R
WADESBORO      PTCLDY    77  69  76 SW6       29.95R
ROCKINGHAM     PTCLDY    76  69  78 SW7       29.95R
ASHEVILLE      PTCLDY    68  62  81 CALM      30.03R

$$


USA.gov is the U.S. government's official web portal to all federal, state and local government web resources and services.